Location: ??????????
(31.2156°N, 29.9553°E)
Time: 04:32:37
(UTC+00:00)

Cosmos 2333 - Pass Details

Date: 03 March 2021
Orbit: 829 x 866 km, 70.9° (Epoch: 14 April)

Event Time Altitude Azimuth Distance (km) Brightness Sun altitude
Rises 16:43:47 0° 181° (S) 3,359 7.4 -10.2°
Reaches altitude 10° 16:46:18 10° 175° (S) 2,433 6.6 -10.7°
Maximum altitude 16:51:32 43° 105° (ESE) 1,161 4.5 -11.8°
Drops below altitude 10° 16:56:51 10° 35° (NE) 2,467 6.3 -13.0°
Sets 16:59:24 0° 29° (NNE) 3,411 7.1 -13.5°
